SCO15CD EGPH-EGAA

Flight info

Callsign SCO15CD
Flight time 0h 37m
Altitude 22000
Route GOSAM P600 BLACA DCT BELZU
Aircraft B738/M-SDE2E3FGHIRWXY/LB1

Departure

Time 2026-04-21 22:26
Airport Edinburgh Airport (EGPH)

Arrival

Time 2026-04-21 23:03
Airport Belfast International Airport (EGAA)
Time Latitude Longitude Altitude Speed Heading
2026-04-21 21:53 55.94702 -3.36608 115 ft 0 kts 89°
2026-04-21 22:15 55.94702 -3.36619 115 ft 2 kts 88°
2026-04-21 22:15 55.94701 -3.36649 114 ft 2 kts 88°
2026-04-21 22:15 55.94700 -3.36679 111 ft 2 kts 85°
2026-04-21 22:16 55.94698 -3.36708 111 ft 2 kts 77°
2026-04-21 22:16 55.94692 -3.36734 112 ft 2 kts 25°
2026-04-21 22:16 55.94676 -3.36737 111 ft 2 kts
2026-04-21 22:16 55.94670 -3.36738 111 ft 0 kts 357°
2026-04-21 22:17 55.94672 -3.36738 111 ft 1 kts 358°
2026-04-21 22:18 55.94713 -3.36736 113 ft 11 kts
2026-04-21 22:18 55.94789 -3.36776 114 ft 12 kts 353°
2026-04-21 22:18 55.94850 -3.36778 115 ft 7 kts 360°
2026-04-21 22:18 55.94884 -3.36792 115 ft 0 kts 334°
2026-04-21 22:19 55.94884 -3.36793 115 ft 1 kts 334°
2026-04-21 22:19 55.94922 -3.36843 115 ft 10 kts 297°
2026-04-21 22:19 55.94903 -3.36965 114 ft 10 kts 239°
2026-04-21 22:20 55.94866 -3.37073 113 ft 10 kts 238°
2026-04-21 22:20 55.94829 -3.37180 112 ft 10 kts 238°
2026-04-21 22:20 55.94788 -3.37301 112 ft 15 kts 239°
2026-04-21 22:20 55.94722 -3.37498 112 ft 22 kts 239°
2026-04-21 22:21 55.94633 -3.37761 114 ft 27 kts 238°
2026-04-21 22:21 55.94541 -3.38030 112 ft 23 kts 239°
2026-04-21 22:21 55.94459 -3.38273 112 ft 22 kts 239°
2026-04-21 22:21 55.94379 -3.38508 114 ft 22 kts 238°
2026-04-21 22:22 55.94304 -3.38730 114 ft 19 kts 239°
2026-04-21 22:22 55.94308 -3.38892 115 ft 11 kts 328°
2026-04-21 22:22 55.94314 -3.38898 115 ft 0 kts 328°
2026-04-21 22:23 55.94315 -3.38900 115 ft 1 kts 328°
2026-04-21 22:24 55.94359 -3.38947 112 ft 14 kts 328°
2026-04-21 22:24 55.94436 -3.38912 113 ft 13 kts 53°
2026-04-21 22:24 55.94474 -3.38802 110 ft 6 kts 59°
2026-04-21 22:24 55.94479 -3.38788 111 ft 0 kts 59°
2026-04-21 22:25 55.94487 -3.38763 112 ft 12 kts 59°
2026-04-21 22:25 55.94679 -3.38198 111 ft 94 kts 59°
2026-04-21 22:25 55.95127 -3.36875 271 ft 147 kts 59°
2026-04-21 22:26 55.95670 -3.35267 1169 ft 156 kts 61°
2026-04-21 22:26 55.96273 -3.33819 2353 ft 144 kts 45°
2026-04-21 22:26 55.97086 -3.32554 2901 ft 172 kts 45°
2026-04-21 22:26 55.98053 -3.30992 3198 ft 202 kts 45°
2026-04-21 22:27 55.98785 -3.29810 3414 ft 216 kts 45°
2026-04-21 22:27 56.00055 -3.28327 4001 ft 232 kts 21°
2026-04-21 22:27 56.01743 -3.28333 4408 ft 260 kts 343°
2026-04-21 22:27 56.03219 -3.30335 5216 ft 277 kts 306°
2026-04-21 22:28 56.03880 -3.33576 5773 ft 282 kts 273°
2026-04-21 22:28 56.03509 -3.36978 6019 ft 285 kts 247°
2026-04-21 22:28 56.02719 -3.40281 6435 ft 290 kts 246°
2026-04-21 22:28 56.02004 -3.43646 7486 ft 288 kts 250°
2026-04-21 22:29 56.01382 -3.47054 8438 ft 291 kts 252°
2026-04-21 22:29 56.00823 -3.50567 9327 ft 295 kts 253°
2026-04-21 22:29 56.00295 -3.54143 10232 ft 300 kts 253°
2026-04-21 22:29 55.99771 -3.57785 10994 ft 309 kts 254°
2026-04-21 22:30 55.99217 -3.61659 11251 ft 335 kts 254°
2026-04-21 22:30 55.98636 -3.65714 11836 ft 346 kts 254°
2026-04-21 22:30 55.98038 -3.69885 12672 ft 350 kts 254°
2026-04-21 22:30 55.97430 -3.74121 13571 ft 353 kts 254°
2026-04-21 22:31 55.96816 -3.78383 14440 ft 358 kts 254°
2026-04-21 22:31 55.96192 -3.82710 15272 ft 361 kts 254°
2026-04-21 22:31 55.95558 -3.87091 16112 ft 365 kts 253°
2026-04-21 22:31 55.94919 -3.91488 16972 ft 369 kts 253°
2026-04-21 22:32 55.94271 -3.95927 17862 ft 371 kts 253°
2026-04-21 22:32 55.93218 -4.00062 18869 ft 363 kts 229°
2026-04-21 22:32 55.91362 -4.02963 19873 ft 351 kts 210°
2026-04-21 22:32 55.89300 -4.05256 20823 ft 348 kts 209°
2026-04-21 22:33 55.87269 -4.07627 21649 ft 351 kts 212°
2026-04-21 22:33 55.85321 -4.10195 22298 ft 354 kts 215°
2026-04-21 22:33 55.83428 -4.12974 22550 ft 355 kts 218°
2026-04-21 22:33 55.81503 -4.15962 22555 ft 376 kts 219°
2026-04-21 22:34 55.79508 -4.19103 22564 ft 394 kts 219°
2026-04-21 22:34 55.77361 -4.22278 22536 ft 409 kts 213°
2026-04-21 22:34 55.74967 -4.25177 22550 ft 423 kts 211°
2026-04-21 22:34 55.72471 -4.28089 22550 ft 436 kts 211°
2026-04-21 22:35 55.69907 -4.31137 22541 ft 448 kts 212°
2026-04-21 22:35 55.67327 -4.34287 22538 ft 455 kts 212°
2026-04-21 22:35 55.64723 -4.37508 22505 ft 455 kts 213°
2026-04-21 22:35 55.62137 -4.40720 22505 ft 453 kts 213°
2026-04-21 22:36 55.57013 -4.47056 22509 ft 452 kts 213°
2026-04-21 22:36 55.54434 -4.50228 22511 ft 452 kts 213°
2026-04-21 22:36 55.51851 -4.53397 22511 ft 452 kts 213°
2026-04-21 22:37 55.49267 -4.56558 22516 ft 452 kts 213°
2026-04-21 22:37 55.46685 -4.59709 22513 ft 452 kts 213°
2026-04-21 22:37 55.44104 -4.62856 22511 ft 452 kts 213°
2026-04-21 22:37 55.41513 -4.66010 22509 ft 452 kts 213°
2026-04-21 22:38 55.38924 -4.69159 22517 ft 452 kts 213°
2026-04-21 22:38 55.36335 -4.72302 22506 ft 451 kts 213°
2026-04-21 22:38 55.33753 -4.75430 22502 ft 451 kts 213°
2026-04-21 22:38 55.31190 -4.78491 22499 ft 450 kts 211°
2026-04-21 22:39 55.28426 -4.81169 22516 ft 447 kts 205°
2026-04-21 22:39 55.25671 -4.83494 22492 ft 436 kts 204°
2026-04-21 22:39 55.23012 -4.85745 22479 ft 414 kts 204°
2026-04-21 22:39 55.20490 -4.87932 22470 ft 394 kts 205°
2026-04-21 22:40 55.18094 -4.90036 22469 ft 376 kts 205°
2026-04-21 22:40 55.15805 -4.92033 22429 ft 359 kts 204°
2026-04-21 22:40 55.13611 -4.93934 22165 ft 342 kts 204°
2026-04-21 22:40 55.11525 -4.95738 21869 ft 329 kts 204°
2026-04-21 22:41 55.09511 -4.97485 21592 ft 316 kts 204°
2026-04-21 22:41 55.07590 -4.99159 21232 ft 310 kts 204°
2026-04-21 22:41 55.05655 -5.00846 20911 ft 311 kts 204°
2026-04-21 22:41 55.03713 -5.02536 20564 ft 314 kts 204°
2026-04-21 22:42 55.01729 -5.04260 20226 ft 323 kts 204°
2026-04-21 22:42 54.99706 -5.06018 19855 ft 325 kts 204°
2026-04-21 22:42 54.97684 -5.07775 19488 ft 324 kts 204°
2026-04-21 22:42 54.95672 -5.09523 19125 ft 322 kts 204°
2026-04-21 22:43 54.93664 -5.11262 18761 ft 321 kts 204°
2026-04-21 22:43 54.91659 -5.12996 18356 ft 320 kts 204°
2026-04-21 22:43 54.89709 -5.14816 17952 ft 320 kts 213°
2026-04-21 22:43 54.88145 -5.17558 17629 ft 321 kts 233°
2026-04-21 22:44 54.87164 -5.20983 17271 ft 321 kts 247°
2026-04-21 22:44 54.86411 -5.24619 16907 ft 320 kts 249°
2026-04-21 22:44 54.85696 -5.28268 16554 ft 318 kts 249°
2026-04-21 22:44 54.84989 -5.31889 16206 ft 316 kts 249°
2026-04-21 22:45 54.84279 -5.35495 15868 ft 314 kts 249°
2026-04-21 22:45 54.83567 -5.39061 15524 ft 313 kts 249°
2026-04-21 22:45 54.82849 -5.42627 15182 ft 311 kts 249°
2026-04-21 22:45 54.82131 -5.46165 14842 ft 310 kts 249°
2026-04-21 22:46 54.81411 -5.49695 14507 ft 309 kts 249°
2026-04-21 22:46 54.80693 -5.53201 14158 ft 309 kts 249°
2026-04-21 22:46 54.79973 -5.56709 13774 ft 308 kts 249°
2026-04-21 22:46 54.79254 -5.60198 13415 ft 306 kts 249°
2026-04-21 22:47 54.78550 -5.63615 13074 ft 305 kts 249°
2026-04-21 22:47 54.77836 -5.67066 12732 ft 303 kts 248°
2026-04-21 22:47 54.77125 -5.70498 12394 ft 302 kts 249°
2026-04-21 22:47 54.76418 -5.73904 12066 ft 300 kts 248°
2026-04-21 22:48 54.75711 -5.77313 11726 ft 301 kts 248°
2026-04-21 22:48 54.74997 -5.80733 11392 ft 300 kts 248°
2026-04-21 22:48 54.74299 -5.84080 11068 ft 299 kts 248°
2026-04-21 22:48 54.73594 -5.87458 10731 ft 299 kts 248°
2026-04-21 22:49 54.72886 -5.90844 10550 ft 288 kts 248°
2026-04-21 22:49 54.72229 -5.93985 10348 ft 276 kts 248°
2026-04-21 22:49 54.71577 -5.97095 10053 ft 274 kts 248°
2026-04-21 22:49 54.70929 -6.00182 9764 ft 273 kts 248°
2026-04-21 22:50 54.70277 -6.03270 9464 ft 272 kts 248°
2026-04-21 22:50 54.69629 -6.06341 9167 ft 271 kts 248°
2026-04-21 22:50 54.68983 -6.09393 8882 ft 270 kts 248°
2026-04-21 22:50 54.68339 -6.12435 8593 ft 269 kts 248°
2026-04-21 22:51 54.67531 -6.15324 8301 ft 266 kts 232°
2026-04-21 22:51 54.66397 -6.17875 7746 ft 275 kts 229°
2026-04-21 22:51 54.65189 -6.20444 7393 ft 276 kts 229°
2026-04-21 22:51 54.63988 -6.22982 7158 ft 273 kts 228°
2026-04-21 22:52 54.62775 -6.25535 6782 ft 272 kts 229°
2026-04-21 22:52 54.61595 -6.28020 6473 ft 264 kts 228°
2026-04-21 22:52 54.60455 -6.30427 6274 ft 253 kts 228°
2026-04-21 22:52 54.59371 -6.32732 6075 ft 246 kts 228°
2026-04-21 22:53 54.58259 -6.35096 5854 ft 270 kts 228°
2026-04-21 22:53 54.56967 -6.37841 5637 ft 317 kts 230°
2026-04-21 22:53 54.55662 -6.40888 5319 ft 307 kts 232°
2026-04-21 22:53 54.54490 -6.43859 4929 ft 295 kts 234°
2026-04-21 22:54 54.53394 -6.46716 4778 ft 276 kts 234°
2026-04-21 22:54 54.52480 -6.49497 4633 ft 260 kts 243°
2026-04-21 22:54 54.51786 -6.52279 4500 ft 244 kts 245°
2026-04-21 22:54 54.51170 -6.54854 4329 ft 223 kts 245°
2026-04-21 22:55 54.50613 -6.57308 3970 ft 218 kts 245°
2026-04-21 22:55 54.50048 -6.59709 3572 ft 218 kts 245°
2026-04-21 22:55 54.49481 -6.62110 3221 ft 215 kts 246°
2026-04-21 22:55 54.48954 -6.64515 2968 ft 213 kts 256°
2026-04-21 22:56 54.49169 -6.66995 3005 ft 218 kts 302°
2026-04-21 22:56 54.50253 -6.68587 3067 ft 205 kts 343°
2026-04-21 22:56 54.51594 -6.68574 3006 ft 186 kts 31°
2026-04-21 22:56 54.52466 -6.67012 2997 ft 181 kts 59°
2026-04-21 22:57 54.53193 -6.65225 2960 ft 182 kts 58°
2026-04-21 22:57 54.53889 -6.63424 2965 ft 187 kts 62°
2026-04-21 22:57 54.54582 -6.61434 2961 ft 201 kts 64°
2026-04-21 22:57 54.55291 -6.59368 2954 ft 200 kts 62°
2026-04-21 22:58 54.56019 -6.57309 2985 ft 203 kts 62°
2026-04-21 22:58 54.56753 -6.55212 2999 ft 205 kts 62°
2026-04-21 22:58 54.57478 -6.53109 2960 ft 203 kts 64°
2026-04-21 22:58 54.58086 -6.50983 2671 ft 197 kts 68°
2026-04-21 22:59 54.58662 -6.48854 2538 ft 193 kts 68°
2026-04-21 22:59 54.59224 -6.46786 2499 ft 191 kts 68°
2026-04-21 22:59 54.59792 -6.44718 2503 ft 190 kts 68°
2026-04-21 22:59 54.60366 -6.42648 2505 ft 191 kts 67°
2026-04-21 23:00 54.60943 -6.40580 2424 ft 193 kts 67°
2026-04-21 23:00 54.61505 -6.38490 2281 ft 189 kts 70°
2026-04-21 23:00 54.61986 -6.36440 2285 ft 177 kts 71°
2026-04-21 23:00 54.62419 -6.34564 2118 ft 164 kts 72°
2026-04-21 23:01 54.62822 -6.32799 1822 ft 153 kts 71°
2026-04-21 23:01 54.63237 -6.31172 1582 ft 139 kts 69°
2026-04-21 23:01 54.63622 -6.29658 1369 ft 138 kts 69°
2026-04-21 23:01 54.63968 -6.28236 1139 ft 137 kts 69°
2026-04-21 23:02 54.64349 -6.26776 901 ft 130 kts 66°
2026-04-21 23:02 54.64740 -6.25333 667 ft 134 kts 66°
2026-04-21 23:02 54.65127 -6.23887 391 ft 129 kts 66°
2026-04-21 23:02 54.65487 -6.22563 273 ft 117 kts 66°
2026-04-21 23:03 54.65756 -6.21552 274 ft 62 kts 64°
2026-04-21 23:03 54.65896 -6.21350 271 ft 23 kts 340°
2026-04-21 23:03 54.65962 -6.21445 271 ft 11 kts 272°
2026-04-21 23:03 54.65956 -6.21524 271 ft 5 kts 271°
2026-04-21 23:04 54.65967 -6.21581 274 ft 5 kts 298°
2026-04-21 23:04 54.66005 -6.21629 271 ft 8 kts 339°
2026-04-21 23:04 54.66030 -6.21640 271 ft 3 kts
2026-04-21 23:04 54.66071 -6.21641 271 ft 3 kts 339°
2026-04-21 23:05 54.66079 -6.21647 271 ft 0 kts 337°